Regional Weather Roundup
Issued by NWS Burlington, VT

Home | Current Version | Previous Version | Text Only | Print | Product List | Glossary On
Versions: 1 2 3 4 5 6 7 8 9 10 11 12 13 14 15 16 17 18 19 20 21 22 23 24 25 26 27 28 29 30 31 32 33 34 35 36 37 38 39 40 41 42 43 44 45 46 47 48 49 50
000
ASUS41 KBTV 271030
RWRBTV
VERMONT REGIONAL WEATHER ROUNDUP
NATIONAL WEATHER SERVICE BURLINGTON VT
600 AM EDT FRI MAY 27 2016

NOTE: "FAIR" INDICATES FEW OR NO CLOUDS BELOW 12,000 FEET WITH NO
SIGNIFICANT WEATHER AND/OR OBSTRUCTIONS TO VISIBILITY.

* THESE REPORTS ARE NOT UNDER NWS QUALITY CONTROL AND/OR DO NOT
  REPORT WEATHER SUCH AS PRECIPITATION AND FOG.

VTZ001>019-271100-
_____VERMONT_____


CITY           SKY/WX    TMP DP  RH WIND       PRES   REMARKS
BURLINGTON     MOCLDY    65  60  84 CALM      29.98R
MONTPELIER     FAIR      62  55  77 S7        30.10S
MORRISVILLE    FAIR      62  59  90 SE3       30.05R
ST. JOHNSBURY*   N/A     62  58  86 MISG      30.05F
LYNDONVILLE*   MOCLDY    60  57  89 SE3       30.09R
RUTLAND*       CLOUDY    69  58  67 SE8       30.05R
SPRINGFIELD    CLOUDY    62  54  74 NE5       30.08S
HIGHGATE*      FAIR      62  57  84 CALM      29.96S
NEWPORT*       MOCLDY    62  58  86 S7        30.05R
BENNINGTON     CLOUDY    69  57  65 VRB6G17   30.04S
SUTTON*          N/A     59 N/A N/A MISG        N/A
MT. MANSFIELD*   N/A     61 N/A N/A W22         N/A

_____LAKE CHAMPLAIN_____


CITY           SKY/WX    TMP DP  RH WIND       PRES   REMARKS
BURTON ISLAND*   N/A     66  59  77 S8          N/A
COLCHESTER RF*   N/A     64  57  77 S17         N/A
DIAMOND ISL*     N/A     66  55  68 SW7         N/A

$$

NYZ007-026>031-035-052-083-087-271100-
_____NORTHERN NEW YORK_____


CITY           SKY/WX    TMP DP  RH WIND       PRES   REMARKS
PLATTSBURGH    CLOUDY    58  56  93 CALM      29.96S
SARANAC LAKE   CLOUDY    51  47  86 CALM      30.00S
MASSENA        CLOUDY    58  53  84 CALM      29.96R
OGDENSBURG*    PTCLDY    61  61 100 CALM      29.94S
WATERTOWN      CLOUDY    65  58  78 CALM      29.95R
ALBANY         MOCLDY    71  51  49 S6        30.02S
GLENS FALLS    PTCLDY    62  59  90 CALM      30.01S

$$
NHZ002-005-011-271100-
_____NEW HAMPSHIRE_____


CITY           SKY/WX    TMP DP  RH WIND       PRES   REMARKS
LEBANON        CLOUDY    65  54  67 CALM      30.08R
MT WASHINGTON  FOG       46  46 100 S24G35      N/A  VSB 1/16
PLYMOUTH       CLOUDY    60  53  75 SE6       30.13R
WHITEFIELD     LGT RAIN  62  57  83 W5        30.09R

$$

_____REGIONAL QUEBEC LOCATIONS_____


CITY           SKY/WX    TMP DP  RH WIND       PRES   REMARKS
MONTREAL       CLOUDY    57  52  82 N7        29.96R
QUEBEC CITY    CLOUDY    52  50  93 NE13      30.03F
SHERBROOKE     MOCLDY    59  57  94 MISG      30.01S

_____REGIONAL ONTARIO LOCATIONS_____


CITY           SKY/WX    TMP DP  RH WIND       PRES   REMARKS
OTTAWA         CLOUDY    55  46  71 E5        29.93S

______KEY______
VSB  - VISIBILITY IN MILES
WCI  - WIND CHILL INDEX
HX   - HEAT INDEX
$$
NNNN




USA.gov is the U.S. government's official web portal to all federal, state and local government web resources and services.